Weather History for Siloam Springs, AR

Change the Weather History Date:

Thursday, December 19, 2013

  Actual Average Record
Temperature  
Mean Temperature 56 °F -  
Max Temperature 60 °F 43 °F 64 °F (1997)
Min Temperature 51 °F 26 °F 6 °F (2000)
Degree Days  
Heating Degree Days 10    
Growing Degree Days 6 (Base 50)    
Moisture  
Dew Point 45 °F    
Average Humidity 65    
Maximum Humidity 72    
Minimum Humidity 51    
Precipitation  
Precipitation 0.00 in - - ()
Sea Level Pressure  
Sea Level Pressure 29.84 in    
Wind  
Wind Speed 18 mph (SSE)    
Max Wind Speed 25 mph    
Max Gust Speed 34 mph    
Visibility 10 miles    
Events      
Averages and records for this station are not official NWS values.
T = Trace of Precipitation, MM = Missing Value Source: NWS Daily Summary

Daily Weather History Graph

Daily Weather History Graph

Search for Another Location

Airport:

Trip Planner

Search our weather history database for the weather conditions in past years. The results will help you decide how hot, cold, wet, or windy it might be!

Date:

Astronomy

Dec. 19, 2013 Rise Set
Actual Time 7:24 AM CST 5:06 PM CST
Civil Twilight 6:55 AM CST 5:34 PM CST
Nautical Twilight 6:23 AM CST 6:07 PM CST
Astronomical Twilight 5:52 AM CST 6:38 PM CST
Moon 7:29 PM CST (12/19) 8:46 AM CST (12/19)
Length of Visible Light 10h 39m
Length of Day
9h 41m
Waning Gibbous, 95% of the Moon is Illuminated
Dec 19
Waning Gibbous
Dec 25
Last Quarter
Jan 1
New
Jan 7
First Quarter
Jan 15
Full

Hourly Weather History & Observations

Time (CST) Temp. Dew Point Humidity Pressure Visibility Wind Dir Wind Speed Gust Speed Precip Events Conditions
12:15 AM 51.8 °F 35.6 °F 54% 29.97 in 10.0 mi South 16.1 mph 21.9 mph N/A   Clear
12:35 AM 53.6 °F 35.6 °F 51% 29.97 in 10.0 mi South 17.3 mph - N/A   Clear
12:55 AM 53.6 °F 35.6 °F 51% 29.96 in 10.0 mi South 17.3 mph 25.3 mph N/A   Clear
1:15 AM 53.6 °F 35.6 °F 51% 29.96 in 10.0 mi South 17.3 mph 25.3 mph N/A   Clear
1:35 AM 53.6 °F 35.6 °F 51% 29.95 in 10.0 mi South 17.3 mph 23.0 mph N/A   Clear
1:55 AM 53.6 °F 35.6 °F 51% 29.95 in 10.0 mi South 17.3 mph - N/A   Clear
2:15 AM 51.8 °F 35.6 °F 54% 29.95 in 10.0 mi South 16.1 mph 21.9 mph N/A   Clear
2:35 AM 51.8 °F 37.4 °F 58% 29.94 in 10.0 mi South 18.4 mph 23.0 mph N/A   Clear
2:55 AM 51.8 °F 37.4 °F 58% 29.94 in 10.0 mi South 18.4 mph 24.2 mph N/A   Clear
3:15 AM 51.8 °F 37.4 °F 58% 29.93 in 10.0 mi South 13.8 mph - N/A   Clear
3:35 AM 51.8 °F 37.4 °F 58% 29.93 in 10.0 mi South 13.8 mph - N/A   Clear
3:55 AM 51.8 °F 37.4 °F 58% 29.93 in 10.0 mi South 16.1 mph - N/A   Clear
4:15 AM 51.8 °F 39.2 °F 62% 29.92 in 10.0 mi South 15.0 mph 20.7 mph N/A   Clear
4:35 AM 51.8 °F 39.2 °F 62% 29.92 in 10.0 mi SSE 17.3 mph 24.2 mph N/A   Clear
4:55 AM 51.8 °F 39.2 °F 62% 29.91 in 10.0 mi SSE 16.1 mph 21.9 mph N/A   Clear
5:15 AM 51.8 °F 39.2 °F 62% 29.91 in 10.0 mi SSE 15.0 mph 21.9 mph N/A   Clear
5:35 AM 51.8 °F 39.2 °F 62% 29.90 in 10.0 mi South 17.3 mph 24.2 mph N/A   Clear
5:55 AM 51.8 °F 39.2 °F 62% 29.89 in 10.0 mi South 18.4 mph 24.2 mph N/A   Clear
6:15 AM 51.8 °F 41.0 °F 67% 29.89 in 10.0 mi South 18.4 mph 24.2 mph N/A   Clear
6:35 AM 51.8 °F 42.8 °F 71% 29.88 in 10.0 mi South 16.1 mph 25.3 mph N/A   Partly Cloudy
6:55 AM 51.8 °F 42.8 °F 71% 29.89 in 10.0 mi South 18.4 mph 26.5 mph N/A   Mostly Cloudy
7:15 AM 51.8 °F 42.8 °F 71% 29.88 in 10.0 mi SSE 18.4 mph 25.3 mph N/A   Overcast
7:35 AM 53.6 °F 44.6 °F 72% 29.89 in 10.0 mi South 19.6 mph 24.2 mph N/A   Overcast
7:55 AM 53.6 °F 44.6 °F 72% 29.88 in 10.0 mi South 18.4 mph 27.6 mph N/A   Overcast
8:15 AM 53.6 °F 44.6 °F 72% 29.88 in 10.0 mi SSE 17.3 mph 26.5 mph N/A   Overcast
8:35 AM 53.6 °F 44.6 °F 72% 29.88 in 10.0 mi South 20.7 mph 28.8 mph N/A   Overcast
8:55 AM 53.6 °F 44.6 °F 72% 29.88 in 10.0 mi South 20.7 mph 26.5 mph N/A   Overcast
9:15 AM 55.4 °F 44.6 °F 67% 29.89 in 10.0 mi South 18.4 mph 25.3 mph N/A   Overcast
9:35 AM 55.4 °F 44.6 °F 67% 29.89 in 10.0 mi South 21.9 mph 28.8 mph N/A   Overcast
9:55 AM 55.4 °F 44.6 °F 67% 29.89 in 10.0 mi South 20.7 mph 25.3 mph N/A   Overcast
10:15 AM 55.4 °F 46.4 °F 72% 29.90 in 10.0 mi South 18.4 mph 32.2 mph N/A   Overcast
10:35 AM 55.4 °F 46.4 °F 72% 29.90 in 10.0 mi South 24.2 mph 33.4 mph N/A   Overcast
10:55 AM 55.4 °F 46.4 °F 72% 29.90 in 10.0 mi South 24.2 mph 28.8 mph N/A   Overcast
11:15 AM 55.4 °F 46.4 °F 72% 29.89 in 10.0 mi South 21.9 mph 28.8 mph N/A   Overcast
11:35 AM 57.2 °F 46.4 °F 67% 29.88 in 10.0 mi South 21.9 mph 26.5 mph N/A   Overcast
11:55 AM 57.2 °F 46.4 °F 67% 29.86 in 10.0 mi South 18.4 mph 31.1 mph N/A   Overcast
12:15 PM 57.2 °F 46.4 °F 67% 29.84 in 10.0 mi South 20.7 mph 34.5 mph N/A   Overcast
12:35 PM 57.2 °F 46.4 °F 67% 29.82 in 10.0 mi South 20.7 mph 27.6 mph N/A   Overcast
12:55 PM 57.2 °F 46.4 °F 67% 29.81 in 10.0 mi South 20.7 mph 31.1 mph N/A   Overcast
1:15 PM 57.2 °F 46.4 °F 67% 29.80 in 10.0 mi South 20.7 mph 27.6 mph N/A   Overcast
1:35 PM 59.0 °F 46.4 °F 63% 29.79 in 10.0 mi South 21.9 mph 29.9 mph N/A   Overcast
1:55 PM 59.0 °F 48.2 °F 67% 29.78 in 10.0 mi South 18.4 mph 32.2 mph N/A   Overcast
2:15 PM 59.0 °F 46.4 °F 63% 29.77 in 10.0 mi South 21.9 mph 28.8 mph N/A   Overcast
2:35 PM 59.0 °F 48.2 °F 67% 29.76 in 10.0 mi South 20.7 mph 28.8 mph N/A   Overcast
2:55 PM 60.8 °F 48.2 °F 63% 29.76 in 10.0 mi South 21.9 mph 31.1 mph N/A   Overcast
3:15 PM 60.8 °F 48.2 °F 63% 29.76 in 10.0 mi South 23.0 mph 28.8 mph N/A   Overcast
3:35 PM 60.8 °F 48.2 °F 63% 29.75 in 10.0 mi South 21.9 mph 31.1 mph N/A   Overcast
3:55 PM 60.8 °F 48.2 °F 63% 29.75 in 10.0 mi South 25.3 mph 33.4 mph N/A   Overcast
4:15 PM 60.8 °F 48.2 °F 63% 29.75 in 10.0 mi South 18.4 mph 28.8 mph N/A   Overcast
4:35 PM 60.8 °F 48.2 °F 63% 29.75 in 10.0 mi South 17.3 mph 26.5 mph N/A   Overcast
4:55 PM 60.8 °F 48.2 °F 63% 29.76 in 10.0 mi South 19.6 mph 27.6 mph N/A   Overcast
5:15 PM 59.0 °F 48.2 °F 67% 29.75 in 10.0 mi SSE 11.5 mph - N/A   Mostly Cloudy
5:35 PM 57.2 °F 46.4 °F 67% 29.75 in 10.0 mi SSE 13.8 mph 21.9 mph N/A   Mostly Cloudy
5:55 PM 57.2 °F 46.4 °F 67% 29.75 in 10.0 mi SSE 12.7 mph 23.0 mph N/A   Mostly Cloudy
6:15 PM 57.2 °F 46.4 °F 67% 29.76 in 10.0 mi SSE 12.7 mph - N/A   Overcast
6:35 PM 57.2 °F 46.4 °F 67% 29.75 in 10.0 mi SSE 11.5 mph - N/A   Mostly Cloudy
6:55 PM 57.2 °F 46.4 °F 67% 29.75 in 10.0 mi SSE 10.4 mph - N/A   Mostly Cloudy
7:15 PM 59.0 °F 48.2 °F 67% 29.75 in 10.0 mi SSE 16.1 mph 20.7 mph N/A   Mostly Cloudy
7:35 PM 59.0 °F 48.2 °F 67% 29.75 in 10.0 mi SSE 12.7 mph 18.4 mph N/A   Mostly Cloudy
7:55 PM 57.2 °F 48.2 °F 72% 29.76 in 10.0 mi SSE 17.3 mph 23.0 mph N/A   Mostly Cloudy
8:15 PM 59.0 °F 48.2 °F 67% 29.75 in 10.0 mi South 17.3 mph 24.2 mph N/A   Mostly Cloudy
8:35 PM 59.0 °F 48.2 °F 67% 29.75 in 10.0 mi South 13.8 mph - N/A   Scattered Clouds
8:55 PM 59.0 °F 48.2 °F 67% 29.75 in 10.0 mi SSE 17.3 mph - N/A   Mostly Cloudy
9:15 PM 59.0 °F 48.2 °F 67% 29.74 in 10.0 mi SSE 13.8 mph 19.6 mph N/A   Overcast
9:35 PM 59.0 °F 50.0 °F 72% 29.74 in 10.0 mi SSE 15.0 mph - N/A   Overcast
9:55 PM 60.8 °F 50.0 °F 68% 29.74 in 10.0 mi SSE 15.0 mph 21.9 mph N/A   Mostly Cloudy
10:15 PM 60.8 °F 51.8 °F 72% 29.75 in 10.0 mi South 15.0 mph 21.9 mph N/A   Mostly Cloudy
10:35 PM 60.8 °F 51.8 °F 72% 29.76 in 10.0 mi South 15.0 mph 23.0 mph N/A   Overcast
10:55 PM 60.8 °F 51.8 °F 72% 29.76 in 10.0 mi SSE 18.4 mph 25.3 mph N/A   Overcast
11:15 PM 60.8 °F 51.8 °F 72% 29.75 in 10.0 mi SSE 18.4 mph 25.3 mph N/A   Mostly Cloudy
11:35 PM 60.8 °F 51.8 °F 72% 29.75 in 10.0 mi SSE 18.4 mph 25.3 mph N/A   Mostly Cloudy
11:55 PM 60.8 °F 51.8 °F 72% 29.75 in 10.0 mi SSE 16.1 mph 23.0 mph N/A   Scattered Clouds